"Pseudo-MPEC" for P122GO7

Created 2024 Dec 1 10:31:16 UT using Find_Orb

Click here for an explanation of pseudo-MPECs

 
 Astrometry: 
     P122GO7* C2024 11 29.39616403 32 53.521+39 16 22.94   ~BTCl 21.86wXNEOCPF51
     P122GO7  C2024 11 29.40833803 32 51.659+39 16 22.92   ~BTCl 21.91wXNEOCPF51
     P122GO7  C2024 11 29.42044103 32 49.825+39 16 22.29   ~BTCl 21.49wXNEOCPF51
     P122GO7  C2024 11 29.43251603 32 47.986+39 16 21.83   ~BTCl 20.87wXNEOCPF51
     P122GO7  C2024 11 29.54268903 32 31.472+39 16 15.76   ~BTL2 21.21GVNEOCPF52
     P122GO7  C2024 11 29.54332003 32 31.373+39 16 15.68   ~BTL2 21.18GVNEOCPF52
     P122GO7 KC2024 11 30.14794003 31 05.13 +39 15 51.6    ~BU4H       VNEOCPH21
     P122GO7 KC2024 11 30.15213403 31 04.52 +39 15 51.1    ~BU4H       VNEOCPH21
     P122GO7 KC2024 11 30.15725903 31 03.74 +39 15 50.8    ~BU4H       VNEOCPH21
     P122GO7 1C2024 11 30.90339003 29 15.029+39 15 01.40   ~BUMV 21.2 GXNEOCP033
     P122GO7 1C2024 11 30.90589003 29 14.716+39 15 01.30   ~BUMV 21.2 GXNEOCP033
     P122GO7 1C2024 11 30.90839003 29 14.338+39 15 01.00   ~BUMV 20.9 GXNEOCP033
     P122GO7 1C2024 11 30.91099003 29 13.927+39 15 01.50   ~BUMV 20.9 GXNEOCP033

Station data:
(033) Karl Schwarzschild Observatory, Tautenburg  (N50.980139 E11.711240)
   Germany.  Observer B. Stecklum. 1.34-m f/3 Schmidt + CCD.
(F51) Pan-STARRS 1, Haleakala  (N20.707234 W156.255910)  US/Hawaii.
   Observers J. Bulger, T. Lowe, A. Schultz, M. Willman. Measurers K.
   Chambers, S. Chastel, T. de Boer, L. Denneau, J. Fairlamb, H. Flewelling,
   M. Huber, C.-C. Lin, E. Magnier, Y. Ramanjooloo, R. Wainscoat, R. Weryk.
   1.8-m Ritchey-Chrétien + CCD.
(F52) Pan-STARRS 2, Haleakala  (N20.707382 W156.255910)  US/Hawaii.
   Observers J. Bulger, T. Dukes, T. Lowe, A. Schultz, M. Willman. Measurers
   K. Chambers, S. Chastel, T. de Boer, L. Denneau, J. Fairlamb, H.
   Flewelling, M. Huber, C.-C. Lin, E. Magnier, Y. Ramanjooloo, R. Wainscoat,
   R. Weryk. 1.8-m Ritchey-Chrétien + CCD.
(H21) Astronomical Research Observatory, Westfield  (N39.483054 W87.968270)
   US/Illinois.  Observer R. Holmes. Measurers S. Foglia, L. Buzzi, T.
   Linder, R. Holmes. 0.76-m f/3.0 astrograph + CCD0.81-m f/4.0 astrograph +
   CCD0.61-m f/4.5 astrograph + CCD0.40-m f/5.32 astrograph + CCD.

Orbital elements:  P122GO7
   Perihelion 2025 Mar 24.57599 +/- 1.92 TT = 13:49:25 (JD 2460759.07599)
Epoch 2024 Nov 30.0 TT = JDT 2460644.5   Earth MOID: 0.0338      AutoNEOCP
M 316.58704668 +/- 1.8              (J2000 ecliptic)
n   0.37890096 +/- 0.011            Peri.  186.04123 +/- 0.8
a   1.89140953 +/- 0.0368           Node   340.13826 +/- 1.5
e   0.4974389 +/- 0.013             Incl.    7.52207 +/- 0.08
P   2.601/950.098d         H 20.71  G  0.15   U  9.7
q 0.95054882 +/- 0.00619    Q 2.83227025 +/- 0.0797
From 13 observations 2024 Nov. 29-30 (36.4 hr); mean residual 0".22
Residuals in arcseconds: 
241129 F51  .20+  .13-    241129 F52  .01+  .01-    241130 033  .25+  .22-    
241129 F51  .03-  .18+    241130 H21  .18-  .55+    241130 033  .24+  .33-    
241129 F51  .06-  .07-    241130 H21  .08+  .20+    241130 033  .02+  .36+    
241129 F51  .20-  .09-    241130 H21  .00   .09+    
241129 F52  .07+  .03+    241130 033  .49-  .30-    

Ephemerides (geocentric):
Date (UTC) HH   RA             Dec           delta  r     elong  mag " sig PA
---- --------  ------------   ------------  ------ ------ -----  --- --------
2024 12 01 11  03 27 53.974   +39 14 17.65  .60441 1.5630 158.0 21.4 .216  71
2024 12 01 12  03 27 47.881   +39 14 13.69  .60419 1.5627 158.0 21.4 .234  70
2024 12 01 13  03 27 41.787   +39 14 09.68  .60397 1.5624 158.0 21.4 .253  68
2024 12 01 14  03 27 35.692   +39 14 05.60  .60376 1.5621 157.9 21.4 .272  67
2024 12 01 15  03 27 29.596   +39 14 01.46  .60354 1.5618 157.9 21.4 .292  66
2024 12 01 16  03 27 23.498   +39 13 57.27  .60333 1.5615 157.9 21.4 .313  65
2024 12 01 17  03 27 17.399   +39 13 53.01  .60311 1.5612 157.8 21.4 .334  65
2024 12 01 18  03 27 11.300   +39 13 48.69  .60290 1.5609 157.8 21.4 .355  64
2024 12 01 19  03 27 05.199   +39 13 44.32  .60268 1.5606 157.8 21.4 .377  63
2024 12 01 20  03 26 59.097   +39 13 39.88  .60247 1.5603 157.7 21.4 .400  62
2024 12 01 21  03 26 52.994   +39 13 35.38  .60225 1.5600 157.7 21.4 .423  62
2024 12 01 22  03 26 46.890   +39 13 30.83  .60204 1.5598 157.7 21.4 .447  61
2024 12 01 23  03 26 40.785   +39 13 26.21  .60183 1.5595 157.6 21.4 .472  61
2024 12 02 00  03 26 34.679   +39 13 21.53  .60161 1.5592 157.6 21.4 .497  60
2024 12 02 01  03 26 28.572   +39 13 16.79  .60140 1.5589 157.6 21.4 .522  60
2024 12 02 02  03 26 22.464   +39 13 11.99  .60119 1.5586 157.6 21.4 .548  59
2024 12 02 03  03 26 16.355   +39 13 07.13  .60098 1.5583 157.5 21.4 .575  59
2024 12 02 04  03 26 10.246   +39 13 02.21  .60077 1.5580 157.5 21.4 .602  58
2024 12 02 05  03 26 04.135   +39 12 57.23  .60055 1.5577 157.5 21.4 .630  58
2024 12 02 06  03 25 58.024   +39 12 52.19  .60034 1.5574 157.4 21.4 .658  57
2024 12 02 07  03 25 51.912   +39 12 47.09  .60013 1.5571 157.4 21.4 .687  57
2024 12 02 08  03 25 45.799   +39 12 41.93  .59992 1.5568 157.4 21.4 .716  57
2024 12 02 09  03 25 39.685   +39 12 36.71  .59971 1.5565 157.3 21.4 .746  56
2024 12 02 10  03 25 33.570   +39 12 31.43  .59950 1.5562 157.3 21.4 .777  56
2024 12 02 11  03 25 27.455   +39 12 26.09  .59930 1.5559 157.3 21.4 .808  56
2024 12 02 12  03 25 21.339   +39 12 20.69  .59909 1.5556 157.2 21.4 .839  55
2024 12 02 13  03 25 15.222   +39 12 15.23  .59888 1.5553 157.2 21.4 .872  55
2024 12 02 14  03 25 09.105   +39 12 09.70  .59867 1.5550 157.2 21.4 .904  55
2024 12 02 15  03 25 02.986   +39 12 04.12  .59846 1.5547 157.1 21.4 .937  54
2024 12 02 16  03 24 56.868   +39 11 58.48  .59826 1.5545 157.1 21.4 .971  54
2024 12 02 17  03 24 50.748   +39 11 52.78  .59805 1.5542 157.1 21.4 1.01  54
2024 12 02 18  03 24 44.629   +39 11 47.01  .59784 1.5539 157.0 21.4 1.04  54
2024 12 02 19  03 24 38.508   +39 11 41.19  .59764 1.5536 157.0 21.4 1.08  53
2024 12 02 20  03 24 32.387   +39 11 35.31  .59743 1.5533 157.0 21.4 1.11  53
2024 12 02 21  03 24 26.266   +39 11 29.36  .59723 1.5530 156.9 21.4 1.15  53
2024 12 02 22  03 24 20.144   +39 11 23.36  .59702 1.5527 156.9 21.4 1.19  53
2024 12 02 23  03 24 14.021   +39 11 17.29  .59682 1.5524 156.8 21.4 1.22  52
2024 12 03 00  03 24 07.898   +39 11 11.17  .59661 1.5521 156.8 21.4 1.26  52
2024 12 03 01  03 24 01.775   +39 11 04.98  .59641 1.5518 156.8 21.4 1.30  52
2024 12 03 02  03 23 55.651   +39 10 58.74  .59621 1.5515 156.7 21.4 1.34  52
2024 12 03 03  03 23 49.527   +39 10 52.43  .59600 1.5512 156.7 21.4 1.38  51
2024 12 03 04  03 23 43.402   +39 10 46.07  .59580 1.5509 156.7 21.4 1.42  51
2024 12 03 05  03 23 37.277   +39 10 39.64  .59560 1.5506 156.6 21.4 1.46  51
2024 12 03 06  03 23 31.152   +39 10 33.16  .59539 1.5503 156.6 21.4 1.50  51
2024 12 03 07  03 23 25.026   +39 10 26.61  .59519 1.5500 156.6 21.4 1.54  51
2024 12 03 08  03 23 18.901   +39 10 20.00  .59499 1.5497 156.5 21.4 1.59  50
2024 12 03 09  03 23 12.775   +39 10 13.34  .59479 1.5494 156.5 21.4 1.63  50
2024 12 03 10  03 23 06.648   +39 10 06.61  .59459 1.5491 156.5 21.4 1.67  50